SCP
0 0 0 0 0 0 0 0 0 0 0 0 0 0 0 0 -0 0 0 0 0 0 0 0 0 0 0 0 0 0 1 0 0 0 0 0 0 0 0 -0 -0 -0 -0 0 0 0 0 0 0 0 0 0 0 0
0 0 0 0 0 0 0 0 0 0 0 0 0 0 0 -0 -0 -0 0 0 0 0 0 0 0 0 0 0 0 0 0 0 1 1 1 0 0 0 -0 -0 -0 -0 0 0 0 0 0 0 0 0 0 1 1 0
0 0 0 0 0 0 0 0 0 0 0 0 0 0 0 -0 -0 -0 0 0 0 0 0 0 0 0 0 0 0 0 0 0 0 0 1 1 0 0 -0 -0 -0 -0 0 0 0 0 0 0 0 -0 0 0 0 0
0 0 0 0 0 0 0 0 0 0 0 -0 0 0 0 -0 -0 -0 0 0 0 0 0 0 0 0 0 0 0 0 0 0 0 0 0 0 0 0 -0 -0 -0 0 0 0 0 0 0 0 0 0 0 0 0 0
0 0 0 0 0 0 0 0 0 -0 0 -0 -0 -0 -0 -0 -0 -0 0 0 0 0 0 0 0 0 0 0 0 0 0 0 0 0 0 -0 -0 0 0 0 0 0 0 0 0 0 1 1 0 0 0 0 0 0
0 0 0 0 0 0 0 0 0 0 -0 -0 -0 -0 -0 -0 -0 0 0 0 0 0 0 0 0 0 0 0 0 0 0 0 0 0 0 0 0 0 0 0 0 0 0 0 0 0 1 0 0 0 0 0 0 0
0 0 0 0 0 0 0 0 0 0 -0 -0 -0 -0 0 -0 0 0 0 0 0 0 0 0 0 0 0 0 0 0 0 0 0 0 0 0 0 0 0 0 0 0 0 0 0 0 0 0 0 0 0 0 0 0
0 0 0 0 0 0 0 0 0 0 -0 -0 -0 0 0 -0 0 0 0 0 0 0 0 0 0 -0 0 0 0 0 0 0 0 0 0 0 0 0 0 0 0 0 0 0 0 0 0 0 0 0 0 0 0 0
0 0 0 0 0 0 0 0 0 0 -0 0 0 0 0 0 0 0 0 0 0 0 0 0 0 0 0 0 0 0 -0 0 0 0 0 0 0 0 0 0 0 0 0 0 0 0 0 0 0 0 0 0 0 0
0 0 0 0 0 0 0 0 0 0 0 0 0 0 0 0 0 0 0 0 0 0 0 0 0 0 0 0 0 0 0 0 0 0 0 0 0 0 0 0 0 0 0 0 0 0 0 0 0 0 0 0 0 0
0 0 0 0 0 0 0 0 0 0 0 0 0 0 0 0 0 0 0 0 0 0 0 0 0 0 0 0 0 0 0 0 0 0 0 0 0 0 0 0 0 0 0 0 0 0 0 0 0 0 0 0 0 0
0 0 0 0 0 0 0 0 0 0 0 0 0 0 0 0 0 0 0 0 0 0 0 0 0 0 0 0 0 0 0 0 0 0 0 0 0 0 0 0 0 0 0 0 0 0 0 0 0 0 0 0 0 0
0 0 0 0 0 0 0 0 0 0 0 0 0 0 0 0 0 0 0 0 0 0 0 0 0 0 0 0 0 0 0 0 0 0 0 0 0 0 0 0 0 0 0 0 0 0 0 0 0 0 0 0 0 0
0 0 0 0 0 0 0 0 0 0 0 0 0 0 0 0 0 0 0 0 0 0 0 0 0 0 0 0 0 0 0 0 0 0 0 0 0 0 0 0 0 0 0 0 0 0 0 0 0 0 0 0 0 0
0 0 0 0 0 0 0 0 0 0 0 0 0 0 0 0 0 0 0 0 0 0 0 0 0 0 0 0 0 0 0 0 0 0 0 0 0 0 0 0 0 0 0 0 0 0 0 0 0 0 0 0 0 0
0 0 0 0 0 0 0 0 0 0 0 0 0 0 0 0 0 0 0 0 0 0 0 0 0 0 0 0 0 -0 -0 0 0 0 0 0 0 0 0 0 0 0 0 0 0 0 0 0 0 0 0 0 0 0
0 0 0 0 0 0 0 0 0 0 0 0 0 0 0 0 0 0 0 0 0 0 0 0 0 0 0 0 0 0 0 -0 -0 -0 -0 -0 -0 0 0 0 0 0 0 0 0 0 0 0 0 0 0 0 0 0
0 0 0 0 0 0 0 0 0 0 0 0 0 0 0 0 0 0 0 0 0 0 0 0 0 0 0 0 0 0 0 0 0 0 0 0 -0 -0 0 0 0 0 0 0 0 0 0 0 0 0 0 0 0 0
0 0 0 0 0 0 0 0 0 0 0 0 0 0 0 0 0 0 0 0 0 0 0 0 0 0 0 0 0 0 0 0 0 0 0 0 0 0 0 0 0 0 0 0 0 0 0 0 0 0 0 0 0 0
0 0 0 0 0 0 0 0 0 0 0 0 0 0 0 0 0 0 0 0 0 0 0 0 0 0 0 0 0 0 0 0 0 0 0 0 0 0 0 0 0 0 0 0 0 0 0 0 0 0 0 0 0 0
0 0 0 0 0 0 0 0 0 0 0 0 0 0 0 0 0 0 0 0 0 0 0 0 0 0 0 0 0 -0 0 0 0 0 0 0 0 0 0 0 0 0 0 0 0 0 0 0 0 0 0 0 0 0
0 0 0 0 0 0 0 0 0 0 0 0 0 0 0 0 0 0 0 0 0 0 0 0 0 0 0 0 0 0 0 0 0 0 0 0 0 0 0 0 0 0 0 0 0 0 0 0 0 0 0 0 0 0
0 0 0 0 0 0 0 0 0 0 0 0 0 0 0 0 0 0 0 0 0 0 0 0 0 0 0 0 0 0 0 0 0 0 0 0 0 0 0 0 0 0 0 0 0 0 0 0 0 0 0 0 0 0
0 0 0 0 0 0 0 0 0 0 0 0 0 0 0 0 0 0 0 0 0 0 0 0 0 0 0 0 0 0 0 0 0 0 0 0 0 0 0 0 0 0 0 0 0 0 0 0 0 0 0 0 0 0
0 0 0 0 0 0 0 0 0 0 0 0 0 0 0 0 0 0 0 0 0 0 0 0 0 0 0 0 0 0 0 0 0 0 0 0 0 0 0 0 0 0 0 0 0 0 0 0 0 0 0 0 0 0
0 0 0 0 0 0 0 0 0 0 0 0 0 0 0 0 0 0 0 0 0 0 0 0 0 0 0 0 0 0 0 0 0 0 0 0 0 0 0 0 0 0 0 0 0 0 0 0 0 0 0 0 0 0
0 0 0 0 0 0 0 0 0 0 0 0 0 0 0 0 0 0 0 0 0 0 0 0 0 0 0 0 0 0 0 0 0 0 0 0 0 0 0 0 0 0 0 0 0 0 0 0 0 0 0 0 0 0
0 0 0 0 0 0 0 0 0 0 0 0 0 0 0 0 0 0 0 0 0 0 0 0 0 0 0 0 0 0 0 0 0 0 0 0 0 0 0 0 0 0 0 0 0 0 0 0 0 0 0 0 0 0
0 0 0 0 0 0 0 0 0 0 0 0 0 0 0 0 0 0 0 0 0 0 0 0 0 0 0 0 0 0 0 0 0 0 0 0 0 0 0 0 0 0 0 0 0 0 0 0 0 0 0 0 0 0
0 0 0 0 0 0 0 0 0 0 0 0 0 0 0 0 0 0 0 0 0 0 0 0 0 0 0 0 0 0 0 0 0 0 0 0 0 0 0 0 0 0 0 0 0 0 0 0 0 0 0 0 0 0
0 0 0 0 0 0 0 0 0 0 0 0 0 0 0 0 0 0 0 0 0 0 0 0 0 0 0 0 0 0 0 0 0 0 0 0 0 0 0 0 0 0 0 0 0 0 0 0 0 0 0 0 0 0
0 0 0 0 0 0 0 0 0 0 0 0 0 0 0 0 0 0 0 0 0 0 0 0 0 0 0 0 0 0 0 0 0 0 0 0 0 0 0 0 0 0 0 0 0 0 0 0 0 0 0 0 0 0
0 0 0 0 0 0 0 0 0 0 0 0 0 0 0 0 0 0 0 0 0 0 0 0 0 0 0 0 0 0 0 0 0 0 0 0 0 0 0 0 0 0 0 0 0 0 0 0 0 0 0 0 0 0
Wind_Speed_500mb
50 48 48 45 46 34 29 30 33 36 36 35 35 35 38 39 41 47 47 33 27 14 40 25 26 16 6 3 4 7 11 12 13 16 17 19 12 22 40 51 45 34 32 28 33 32 25 44 53 66 38 55 34 67
52 52 50 48 49 37 34 33 32 35 39 38 37 36 38 41 41 42 32 42 49 24 14 12 8 21 25 25 16 13 16 3 19 12 13 13 18 10 40 40 45 36 30 27 32 37 29 30 44 56 38 20 40 36
53 52 50 49 52 45 37 39 40 40 41 41 40 39 35 39 40 42 35 39 47 15 19 31 22 32 34 37 39 16 16 22 22 36 17 16 27 21 32 34 42 44 41 35 35 33 49 57 42 49 41 24 31 18
52 53 52 51 52 51 42 41 44 43 45 45 42 41 37 36 41 44 24 27 34 17 7 7 13 13 18 23 30 47 62 58 42 23 12 20 29 31 32 32 14 19 29 52 44 29 34 53 66 77 51 17 28 33
52 51 53 51 53 53 45 40 44 45 46 46 44 43 40 33 37 38 19 25 24 17 7 8 16 19 10 13 19 26 45 60 45 19 13 22 30 14 13 31 31 26 15 24 15 32 21 15 20 33 17 34 26 21
51 51 53 51 52 53 36 41 50 49 48 44 41 42 39 27 25 20 11 10 11 16 13 6 6 18 16 14 15 16 21 30 47 20 6 14 7 12 12 7 11 23 3 63 7 10 18 30 6 8 25 24 25 18
52 51 51 50 51 47 39 45 52 53 47 42 40 39 37 24 20 18 11 4 25 12 8 7 5 12 11 13 10 17 23 14 7 6 5 7 3 3 5 12 18 24 18 26 17 19 16 17 19 12 5 8 14 21
53 49 51 48 51 47 43 41 50 52 47 42 39 35 35 23 20 20 21 21 22 10 15 7 4 12 4 4 6 11 10 11 15 4 3 6 3 3 7 11 14 21 21 22 14 17 16 12 10 17 11 14 14 22
54 47 51 48 48 45 44 41 46 52 45 36 34 30 25 10 16 10 22 28 28 15 8 7 10 6 4 6 7 6 6 2 10 8 7 11 10 12 17 13 24 24 20 16 16 11 8 8 9 7 14 15 21 23
54 41 48 49 47 42 44 37 43 46 33 21 21 11 9 4 20 28 8 9 13 14 30 11 18 10 8 6 2 3 3 2 4 6 7 8 6 18 23 23 24 26 29 23 32 23 14 14 9 8 10 10 16 19
52 36 43 46 41 39 41 31 36 39 22 18 11 8 23 24 11 11 8 9 13 7 13 14 7 8 2 7 5 7 3 4 3 4 4 4 5 8 14 18 19 13 13 22 28 25 24 22 16 16 21 20 20 23
49 33 39 43 39 36 29 25 31 24 21 19 24 36 21 10 9 8 6 7 10 3 4 6 2 6 2 9 3 5 4 5 5 2 5 5 6 14 20 26 31 29 26 25 23 24 25 24 25 28 24 28 26 27
40 32 38 40 35 34 26 24 27 28 32 10 9 10 10 7 6 10 11 8 6 7 7 9 5 5 5 4 1 2 4 5 3 4 6 9 20 26 24 31 28 30 35 31 28 24 22 18 17 19 22 23 18 15
31 32 36 36 32 30 27 23 25 21 11 10 9 8 9 10 10 10 10 9 7 8 3 3 4 4 2 3 5 2 2 5 3 5 7 11 20 27 28 28 33 37 36 30 30 30 30 28 23 16 10 5 4 2
33 33 36 32 25 21 24 22 16 10 10 9 10 9 11 15 8 8 10 13 6 9 6 5 7 7 3 2 4 4 3 5 5 9 18 22 26 26 25 25 28 31 31 29 29 30 29 25 21 17 12 4 3 11
29 33 29 14 19 18 12 6 8 11 8 11 14 11 16 11 8 5 12 19 12 5 2 1 4 2 3 4 7 8 6 5 8 10 24 27 20 22 23 24 31 31 28 27 27 26 24 24 20 16 15 13 10 7
22 23 20 14 12 10 10 6 9 11 11 11 9 16 18 18 13 15 21 21 11 9 4 2 4 8 4 6 8 6 4 12 17 27 21 21 22 21 22 22 24 24 23 27 27 26 27 23 22 19 16 15 14 11
28 18 21 19 10 7 15 15 9 12 13 21 11 16 17 24 22 24 24 22 16 14 11 6 6 3 5 6 5 11 13 26 29 24 20 18 16 17 18 19 21 21 25 20 18 19 19 20 17 15 13 10 6 10
20 24 27 29 14 12 7 9 13 9 20 20 23 24 20 16 24 28 28 22 21 13 5 4 7 8 12 8 13 21 26 25 27 22 18 14 13 14 15 14 14 15 16 16 18 17 18 17 12 6 10 8 11 14
40 38 29 29 24 12 10 10 16 13 8 11 17 24 28 27 23 27 28 27 26 19 8 7 8 9 11 12 20 23 21 22 24 21 18 14 10 9 10 10 9 9 8 10 16 19 13 16 12 10 7 11 5 10
33 34 37 35 33 28 11 11 17 16 14 12 11 20 17 18 28 26 30 32 24 9 11 21 19 13 4 17 16 21 21 15 11 7 18 18 10 8 6 7 9 9 10 12 13 15 20 18 20 22 20 19 16 12
29 31 29 49 24 20 20 25 16 9 12 20 17 16 10 10 15 29 31 27 24 29 24 26 20 22 19 19 17 16 19 14 16 15 15 18 14 11 6 4 4 5 5 6 8 9 12 15 20 23 25 24 22 24
29 32 27 21 20 19 12 28 24 15 8 5 14 11 7 7 10 18 6 29 28 34 36 29 23 14 19 22 20 18 24 22 17 18 18 16 13 10 7 3 1 3 5 6 8 8 11 14 19 26 25 27 27 27
33 17 13 15 29 10 13 14 15 12 11 16 9 9 7 7 9 8 9 9 21 34 34 31 26 23 20 25 28 26 25 23 22 23 19 17 14 11 6 4 4 6 7 9 8 10 11 14 20 23 26 27 28 30
19 18 16 14 23 13 14 12 22 16 15 14 23 11 5 9 6 7 11 10 24 23 26 30 32 32 35 34 28 30 31 26 26 23 19 14 11 7 4 2 2 4 7 7 5 11 18 20 21 25 28 31 33 35
15 21 16 11 13 17 14 13 16 20 18 14 12 6 6 5 5 9 2 9 9 16 27 28 32 31 32 42 37 38 35 28 22 21 18 14 10 7 6 5 3 1 1 5 11 14 19 22 26 30 33 33 34 37
15 18 20 33 24 15 12 16 19 19 15 13 8 8 8 7 10 3 7 10 6 2 5 10 20 21 22 30 38 43 37 30 21 17 19 14 10 8 8 6 4 7 17 18 16 16 20 25 29 33 36 38 38 39
15 23 24 17 20 16 9 13 13 10 10 7 11 11 10 8 2 6 5 3 7 10 11 16 14 19 35 44 47 44 35 29 25 17 11 12 12 9 8 7 8 14 14 15 16 22 22 24 29 35 40 45 49 48
11 31 29 18 18 11 11 12 10 13 12 19 8 11 8 8 9 10 10 14 15 18 26 32 36 39 40 34 29 23 18 17 17 16 14 10 14 15 17 12 14 14 15 17 16 20 25 30 34 39 43 44 46 49
19 33 19 16 11 14 6 5 12 8 12 9 11 11 17 17 9 12 15 17 18 19 21 24 27 26 28 28 24 21 20 18 15 13 16 14 14 18 16 18 16 13 13 14 18 22 25 30 33 31 34 41 41 43
7 9 8 4 7 12 15 16 18 16 11 10 9 5 15 15 14 17 22 18 21 23 24 24 22 22 22 20 21 21 15 14 20 23 20 16 15 9 11 11 7 10 9 14 16 19 25 27 26 30 32 34 38 38
9 8 6 6 6 11 9 5 5 5 8 10 7 8 7 12 12 9 19 19 15 20 22 25 24 19 20 21 19 17 17 14 13 14 12 9 11 11 3 3 3 6 8 9 13 16 19 20 22 24 28 30 33 34
10 19 17 9 7 7 3 4 6 5 4 7 7 12 7 9 8 6 12 21 17 14 22 20 27 26 15 16 18 19 21 16 9 9 7 6 5 3 4 3 4 6 7 7 9 10 13 17 21 24 25 27 29 32
Wind_Direction_500mb
324 325 323 320 318 310 310 321 327 328 330 331 327 325 325 329 319 316 326 330 293 261 252 259 196 168 274 320 186 143 158 222 224 227 231 228 250 235 242 242 236 244 233 237 228 227 224 220 224 223 222 221 241 223
321 324 322 318 318 308 299 303 310 314 319 325 328 323 320 323 333 324 313 317 328 260 273 241 280 199 204 202 219 232 253 236 208 222 201 232 237 250 238 243 224 242 229 237 215 213 215 214 226 245 245 203 178 193
315 318 319 318 320 314 294 300 299 304 309 313 321 324 319 318 323 326 301 316 332 285 274 251 236 252 246 240 233 214 237 224 236 249 281 249 247 221 236 256 253 231 214 233 224 200 220 228 241 256 259 210 221 245
311 312 315 317 318 318 295 291 296 297 304 309 312 319 319 316 320 322 281 292 323 285 274 253 218 245 243 251 242 239 244 246 266 268 262 253 240 214 231 245 210 256 221 202 218 219 217 221 231 252 256 191 222 229
310 307 310 309 314 314 309 301 306 298 298 303 306 313 318 315 319 321 270 269 298 330 312 290 215 231 285 292 281 273 254 245 244 233 222 242 240 244 231 232 224 206 252 243 210 215 208 223 251 233 220 215 227 235
307 303 304 305 311 315 309 313 305 304 300 303 301 308 314 311 316 324 286 195 242 315 310 287 217 195 216 259 294 293 297 261 234 208 193 248 217 209 192 240 141 170 74 217 166 166 216 218 221 305 232 198 196 199
308 301 302 302 307 310 307 311 311 309 303 300 298 304 308 296 288 274 271 259 306 305 255 272 254 191 230 258 272 318 310 286 268 158 166 271 109 261 185 210 355 41 44 47 63 140 110 130 136 145 215 158 189 186
307 299 300 298 304 307 297 306 313 315 309 302 299 300 298 277 272 271 262 257 306 247 251 268 271 199 179 218 277 317 284 307 1 357 23 330 339 14 59 36 23 46 39 38 28 21 67 90 99 105 189 161 189 177
305 300 297 298 300 301 304 301 313 315 314 309 302 298 287 241 232 237 237 259 276 237 281 238 277 305 349 283 233 244 289 346 3 4 4 315 9 43 351 16 36 37 54 53 34 44 43 28 67 137 229 210 195 192
305 295 292 298 297 300 310 302 313 320 329 333 310 247 234 219 245 291 236 225 213 232 222 250 258 251 313 282 290 257 199 321 34 13 341 38 61 20 9 28 35 28 31 72 82 59 58 84 113 167 195 171 186 190
304 285 288 294 291 295 305 305 316 326 347 336 318 273 276 290 292 235 232 215 206 232 228 242 305 293 70 299 343 315 294 254 75 52 69 74 63 52 49 52 45 61 70 64 72 68 59 57 68 68 64 77 105 130
300 280 282 288 285 289 298 307 312 324 309 292 290 298 291 253 220 240 234 230 239 256 169 286 142 359 83 260 280 311 316 292 68 189 112 88 156 119 94 81 63 54 66 76 75 72 70 69 70 75 75 84 111 131
291 283 280 286 280 286 283 295 300 301 318 305 231 241 241 238 234 222 197 224 249 154 179 208 202 286 215 246 305 324 300 52 222 242 85 105 97 88 75 75 62 66 69 68 72 81 85 82 77 79 83 87 107 124
285 280 280 282 275 282 278 277 289 309 309 251 234 239 233 201 240 224 292 12 44 118 193 103 157 307 269 60 298 114 11 255 233 159 86 112 88 83 77 74 68 63 65 64 55 54 55 55 56 55 45 61 96 330
281 278 280 272 277 279 283 278 262 280 267 265 245 243 234 247 294 345 331 309 259 181 180 242 240 221 180 87 253 153 263 252 235 83 115 102 95 93 78 67 65 62 58 49 45 44 42 37 32 31 33 28 293 262
280 282 280 267 260 259 251 220 269 219 245 245 243 244 254 292 264 214 254 245 218 112 42 317 320 318 249 219 206 216 221 222 108 100 95 103 94 76 70 64 64 58 56 51 41 36 34 35 32 22 7 359 341 288
277 263 269 257 268 248 216 225 223 219 238 237 247 260 287 276 277 236 217 232 194 176 218 177 198 237 261 255 211 214 33 98 111 116 118 100 87 76 64 46 54 54 51 46 35 22 21 30 37 34 33 351 347 325
250 260 262 257 252 249 238 216 234 238 244 244 251 243 233 251 272 271 226 227 214 201 233 229 324 227 247 240 280 102 102 116 130 127 117 104 88 73 61 52 43 37 29 24 30 37 44 23 13 21 3 5 6 347
268 243 264 215 214 220 233 219 217 257 238 247 250 247 248 235 252 255 268 236 222 227 246 215 235 245 241 279 110 124 142 149 137 142 123 113 94 81 67 54 45 33 31 28 28 16 18 17 21 344 351 3 335 318
270 272 276 228 213 214 226 230 201 250 268 243 237 247 248 237 244 237 238 245 220 216 207 215 240 275 352 344 141 147 155 157 154 156 154 146 110 95 69 57 36 27 31 36 27 0 356 353 347 5 338 359 341 276
266 268 257 247 202 212 255 231 216 243 256 246 236 232 244 232 232 229 222 228 232 205 219 233 251 266 123 126 134 146 158 165 196 204 170 146 121 105 91 63 45 39 30 20 15 9 12 5 350 333 327 319 309 308
245 247 255 218 201 211 228 230 241 240 242 240 250 225 240 231 228 229 221 220 228 226 225 231 241 214 170 168 166 170 162 164 170 169 158 142 141 145 133 96 51 41 18 3 358 2 351 337 341 345 346 337 326 311
228 240 250 201 191 217 242 215 222 216 231 246 232 235 228 224 227 212 230 225 226 219 221 224 231 226 187 171 165 165 163 166 169 160 150 149 147 149 147 146 3 323 315 313 317 327 332 327 326 333 333 335 336 327
207 216 229 221 193 208 200 211 211 219 218 228 232 237 239 215 214 221 239 234 218 215 200 195 212 199 180 171 174 177 178 182 170 158 158 163 166 170 184 233 273 288 293 294 310 311 307 309 316 319 320 323 322 321
176 203 221 228 200 197 206 203 213 218 224 218 228 235 204 187 222 244 241 237 237 196 190 190 205 216 197 176 186 190 183 186 172 167 169 169 171 187 215 236 277 306 304 291 290 318 319 316 313 311 310 308 309 310
190 213 211 216 196 199 202 205 199 202 215 224 225 142 154 185 229 249 249 30 15 198 198 203 203 217 205 183 182 171 167 169 176 167 163 174 172 180 201 221 247 154 181 298 311 306 308 309 310 307 305 306 303 302
195 205 209 231 252 207 215 221 207 200 207 211 164 155 155 201 233 138 108 43 43 192 156 213 205 216 203 164 154 156 157 153 160 170 162 161 161 165 165 172 203 248 275 289 301 306 300 299 298 297 299 300 300 299
199 202 215 213 220 219 214 193 190 204 216 148 142 170 178 216 75 72 65 34 85 102 130 143 150 159 136 135 138 139 149 169 177 190 175 152 164 179 197 217 250 286 311 318 295 291 304 310 308 302 299 298 298 299
209 208 217 194 212 199 213 204 207 206 195 171 186 191 165 86 89 111 100 104 122 127 119 117 114 128 128 133 135 146 159 151 162 169 177 176 181 190 183 233 290 295 293 296 311 312 311 309 307 303 304 306 304 300
203 196 197 175 185 196 173 224 229 186 150 146 119 112 104 112 100 107 120 129 136 140 140 142 144 147 144 144 144 156 169 180 181 188 197 198 179 208 245 277 283 290 301 308 316 319 318 312 319 323 312 308 310 304
27 151 182 139 130 85 89 95 100 105 99 93 81 116 134 133 133 129 130 137 151 151 153 154 157 160 158 169 175 176 180 206 200 193 202 213 231 240 253 273 293 296 318 324 332 328 324 334 332 327 329 330 325 324
22 16 124 117 102 115 121 143 112 98 127 139 119 98 135 168 138 144 160 130 149 167 171 166 164 148 166 185 199 190 189 205 188 191 197 188 202 237 245 293 336 334 340 1 341 341 342 346 346 351 351 352 352 352
64 58 75 93 131 124 100 132 116 110 105 80 75 21 53 18 71 109 143 156 125 160 162 163 166 178 192 182 183 179 195 205 203 186 186 185 191 183 137 122 55 30 32 24 4 354 4 11 13 15 15 17 20 23
Wind_Speed_850mb
50 48 48 45 46 34 29 30 33 36 36 35 35 35 38 39 41 47 47 33 27 14 40 25 26 16 6 3 4 7 11 12 13 16 17 19 12 22 40 51 45 34 32 28 33 32 25 44 53 66 38 55 34 67
52 52 50 48 49 37 34 33 32 35 39 38 37 36 38 41 41 42 32 42 49 24 14 12 8 21 25 25 16 13 16 3 19 12 13 13 18 10 40 40 45 36 30 27 32 37 29 30 44 56 38 20 40 36
53 52 50 49 52 45 37 39 40 40 41 41 40 39 35 39 40 42 35 39 47 15 19 31 22 32 34 37 39 16 16 22 22 36 17 16 27 21 32 34 42 44 41 35 35 33 49 57 42 49 41 24 31 18
52 53 52 51 52 51 42 41 44 43 45 45 42 41 37 36 41 44 24 27 34 17 7 7 13 13 18 23 30 47 62 58 42 23 12 20 29 31 32 32 14 19 29 52 44 29 34 53 66 77 51 17 28 33
52 51 53 51 53 53 45 40 44 45 46 46 44 43 40 33 37 38 19 25 24 17 7 8 16 19 10 13 19 26 45 60 45 19 13 22 30 14 13 31 31 26 15 24 15 32 21 15 20 33 17 34 26 21
51 51 53 51 52 53 36 41 50 49 48 44 41 42 39 27 25 20 11 10 11 16 13 6 6 18 16 14 15 16 21 30 47 20 6 14 7 12 12 7 11 23 3 63 7 10 18 30 6 8 25 24 25 18
52 51 51 50 51 47 39 45 52 53 47 42 40 39 37 24 20 18 11 4 25 12 8 7 5 12 11 13 10 17 23 14 7 6 5 7 3 3 5 12 18 24 18 26 17 19 16 17 19 12 5 8 14 21
53 49 51 48 51 47 43 41 50 52 47 42 39 35 35 23 20 20 21 21 22 10 15 7 4 12 4 4 6 11 10 11 15 4 3 6 3 3 7 11 14 21 21 22 14 17 16 12 10 17 11 14 14 22
54 47 51 48 48 45 44 41 46 52 45 36 34 30 25 10 16 10 22 28 28 15 8 7 10 6 4 6 7 6 6 2 10 8 7 11 10 12 17 13 24 24 20 16 16 11 8 8 9 7 14 15 21 23
54 41 48 49 47 42 44 37 43 46 33 21 21 11 9 4 20 28 8 9 13 14 30 11 18 10 8 6 2 3 3 2 4 6 7 8 6 18 23 23 24 26 29 23 32 23 14 14 9 8 10 10 16 19
52 36 43 46 41 39 41 31 36 39 22 18 11 8 23 24 11 11 8 9 13 7 13 14 7 8 2 7 5 7 3 4 3 4 4 4 5 8 14 18 19 13 13 22 28 25 24 22 16 16 21 20 20 23
49 33 39 43 39 36 29 25 31 24 21 19 24 36 21 10 9 8 6 7 10 3 4 6 2 6 2 9 3 5 4 5 5 2 5 5 6 14 20 26 31 29 26 25 23 24 25 24 25 28 24 28 26 27
40 32 38 40 35 34 26 24 27 28 32 10 9 10 10 7 6 10 11 8 6 7 7 9 5 5 5 4 1 2 4 5 3 4 6 9 20 26 24 31 28 30 35 31 28 24 22 18 17 19 22 23 18 15
31 32 36 36 32 30 27 23 25 21 11 10 9 8 9 10 10 10 10 9 7 8 3 3 4 4 2 3 5 2 2 5 3 5 7 11 20 27 28 28 33 37 36 30 30 30 30 28 23 16 10 5 4 2
33 33 36 32 25 21 24 22 16 10 10 9 10 9 11 15 8 8 10 13 6 9 6 5 7 7 3 2 4 4 3 5 5 9 18 22 26 26 25 25 28 31 31 29 29 30 29 25 21 17 12 4 3 11
29 33 29 14 19 18 12 6 8 11 8 11 14 11 16 11 8 5 12 19 12 5 2 1 4 2 3 4 7 8 6 5 8 10 24 27 20 22 23 24 31 31 28 27 27 26 24 24 20 16 15 13 10 7
22 23 20 14 12 10 10 6 9 11 11 11 9 16 18 18 13 15 21 21 11 9 4 2 4 8 4 6 8 6 4 12 17 27 21 21 22 21 22 22 24 24 23 27 27 26 27 23 22 19 16 15 14 11
28 18 21 19 10 7 15 15 9 12 13 21 11 16 17 24 22 24 24 22 16 14 11 6 6 3 5 6 5 11 13 26 29 24 20 18 16 17 18 19 21 21 25 20 18 19 19 20 17 15 13 10 6 10
20 24 27 29 14 12 7 9 13 9 20 20 23 24 20 16 24 28 28 22 21 13 5 4 7 8 12 8 13 21 26 25 27 22 18 14 13 14 15 14 14 15 16 16 18 17 18 17 12 6 10 8 11 14
40 38 29 29 24 12 10 10 16 13 8 11 17 24 28 27 23 27 28 27 26 19 8 7 8 9 11 12 20 23 21 22 24 21 18 14 10 9 10 10 9 9 8 10 16 19 13 16 12 10 7 11 5 10
33 34 37 35 33 28 11 11 17 16 14 12 11 20 17 18 28 26 30 32 24 9 11 21 19 13 4 17 16 21 21 15 11 7 18 18 10 8 6 7 9 9 10 12 13 15 20 18 20 22 20 19 16 12
29 31 29 49 24 20 20 25 16 9 12 20 17 16 10 10 15 29 31 27 24 29 24 26 20 22 19 19 17 16 19 14 16 15 15 18 14 11 6 4 4 5 5 6 8 9 12 15 20 23 25 24 22 24
29 32 27 21 20 19 12 28 24 15 8 5 14 11 7 7 10 18 6 29 28 34 36 29 23 14 19 22 20 18 24 22 17 18 18 16 13 10 7 3 1 3 5 6 8 8 11 14 19 26 25 27 27 27
33 17 13 15 29 10 13 14 15 12 11 16 9 9 7 7 9 8 9 9 21 34 34 31 26 23 20 25 28 26 25 23 22 23 19 17 14 11 6 4 4 6 7 9 8 10 11 14 20 23 26 27 28 30
19 18 16 14 23 13 14 12 22 16 15 14 23 11 5 9 6 7 11 10 24 23 26 30 32 32 35 34 28 30 31 26 26 23 19 14 11 7 4 2 2 4 7 7 5 11 18 20 21 25 28 31 33 35
15 21 16 11 13 17 14 13 16 20 18 14 12 6 6 5 5 9 2 9 9 16 27 28 32 31 32 42 37 38 35 28 22 21 18 14 10 7 6 5 3 1 1 5 11 14 19 22 26 30 33 33 34 37
15 18 20 33 24 15 12 16 19 19 15 13 8 8 8 7 10 3 7 10 6 2 5 10 20 21 22 30 38 43 37 30 21 17 19 14 10 8 8 6 4 7 17 18 16 16 20 25 29 33 36 38 38 39
15 23 24 17 20 16 9 13 13 10 10 7 11 11 10 8 2 6 5 3 7 10 11 16 14 19 35 44 47 44 35 29 25 17 11 12 12 9 8 7 8 14 14 15 16 22 22 24 29 35 40 45 49 48
11 31 29 18 18 11 11 12 10 13 12 19 8 11 8 8 9 10 10 14 15 18 26 32 36 39 40 34 29 23 18 17 17 16 14 10 14 15 17 12 14 14 15 17 16 20 25 30 34 39 43 44 46 49
19 33 19 16 11 14 6 5 12 8 12 9 11 11 17 17 9 12 15 17 18 19 21 24 27 26 28 28 24 21 20 18 15 13 16 14 14 18 16 18 16 13 13 14 18 22 25 30 33 31 34 41 41 43
7 9 8 4 7 12 15 16 18 16 11 10 9 5 15 15 14 17 22 18 21 23 24 24 22 22 22 20 21 21 15 14 20 23 20 16 15 9 11 11 7 10 9 14 16 19 25 27 26 30 32 34 38 38
9 8 6 6 6 11 9 5 5 5 8 10 7 8 7 12 12 9 19 19 15 20 22 25 24 19 20 21 19 17 17 14 13 14 12 9 11 11 3 3 3 6 8 9 13 16 19 20 22 24 28 30 33 34
10 19 17 9 7 7 3 4 6 5 4 7 7 12 7 9 8 6 12 21 17 14 22 20 27 26 15 16 18 19 21 16 9 9 7 6 5 3 4 3 4 6 7 7 9 10 13 17 21 24 25 27 29 32
Wind_Direction_850mb
324 325 323 320 318 310 310 321 327 328 330 331 327 325 325 329 319 316 326 330 293 261 252 259 196 168 274 320 186 143 158 222 224 227 231 228 250 235 242 242 236 244 233 237 228 227 224 220 224 223 222 221 241 223
321 324 322 318 318 308 299 303 310 314 319 325 328 323 320 323 333 324 313 317 328 260 273 241 280 199 204 202 219 232 253 236 208 222 201 232 237 250 238 243 224 242 229 237 215 213 215 214 226 245 245 203 178 193
315 318 319 318 320 314 294 300 299 304 309 313 321 324 319 318 323 326 301 316 332 285 274 251 236 252 246 240 233 214 237 224 236 249 281 249 247 221 236 256 253 231 214 233 224 200 220 228 241 256 259 210 221 245
311 312 315 317 318 318 295 291 296 297 304 309 312 319 319 316 320 322 281 292 323 285 274 253 218 245 243 251 242 239 244 246 266 268 262 253 240 214 231 245 210 256 221 202 218 219 217 221 231 252 256 191 222 229
310 307 310 309 314 314 309 301 306 298 298 303 306 313 318 315 319 321 270 269 298 330 312 290 215 231 285 292 281 273 254 245 244 233 222 242 240 244 231 232 224 206 252 243 210 215 208 223 251 233 220 215 227 235
307 303 304 305 311 315 309 313 305 304 300 303 301 308 314 311 316 324 286 195 242 315 310 287 217 195 216 259 294 293 297 261 234 208 193 248 217 209 192 240 141 170 74 217 166 166 216 218 221 305 232 198 196 199
308 301 302 302 307 310 307 311 311 309 303 300 298 304 308 296 288 274 271 259 306 305 255 272 254 191 230 258 272 318 310 286 268 158 166 271 109 261 185 210 355 41 44 47 63 140 110 130 136 145 215 158 189 186
307 299 300 298 304 307 297 306 313 315 309 302 299 300 298 277 272 271 262 257 306 247 251 268 271 199 179 218 277 317 284 307 1 357 23 330 339 14 59 36 23 46 39 38 28 21 67 90 99 105 189 161 189 177
305 300 297 298 300 301 304 301 313 315 314 309 302 298 287 241 232 237 237 259 276 237 281 238 277 305 349 283 233 244 289 346 3 4 4 315 9 43 351 16 36 37 54 53 34 44 43 28 67 137 229 210 195 192
305 295 292 298 297 300 310 302 313 320 329 333 310 247 234 219 245 291 236 225 213 232 222 250 258 251 313 282 290 257 199 321 34 13 341 38 61 20 9 28 35 28 31 72 82 59 58 84 113 167 195 171 186 190
304 285 288 294 291 295 305 305 316 326 347 336 318 273 276 290 292 235 232 215 206 232 228 242 305 293 70 299 343 315 294 254 75 52 69 74 63 52 49 52 45 61 70 64 72 68 59 57 68 68 64 77 105 130
300 280 282 288 285 289 298 307 312 324 309 292 290 298 291 253 220 240 234 230 239 256 169 286 142 359 83 260 280 311 316 292 68 189 112 88 156 119 94 81 63 54 66 76 75 72 70 69 70 75 75 84 111 131
291 283 280 286 280 286 283 295 300 301 318 305 231 241 241 238 234 222 197 224 249 154 179 208 202 286 215 246 305 324 300 52 222 242 85 105 97 88 75 75 62 66 69 68 72 81 85 82 77 79 83 87 107 124
285 280 280 282 275 282 278 277 289 309 309 251 234 239 233 201 240 224 292 12 44 118 193 103 157 307 269 60 298 114 11 255 233 159 86 112 88 83 77 74 68 63 65 64 55 54 55 55 56 55 45 61 96 330
281 278 280 272 277 279 283 278 262 280 267 265 245 243 234 247 294 345 331 309 259 181 180 242 240 221 180 87 253 153 263 252 235 83 115 102 95 93 78 67 65 62 58 49 45 44 42 37 32 31 33 28 293 262
280 282 280 267 260 259 251 220 269 219 245 245 243 244 254 292 264 214 254 245 218 112 42 317 320 318 249 219 206 216 221 222 108 100 95 103 94 76 70 64 64 58 56 51 41 36 34 35 32 22 7 359 341 288
277 263 269 257 268 248 216 225 223 219 238 237 247 260 287 276 277 236 217 232 194 176 218 177 198 237 261 255 211 214 33 98 111 116 118 100 87 76 64 46 54 54 51 46 35 22 21 30 37 34 33 351 347 325
250 260 262 257 252 249 238 216 234 238 244 244 251 243 233 251 272 271 226 227 214 201 233 229 324 227 247 240 280 102 102 116 130 127 117 104 88 73 61 52 43 37 29 24 30 37 44 23 13 21 3 5 6 347
268 243 264 215 214 220 233 219 217 257 238 247 250 247 248 235 252 255 268 236 222 227 246 215 235 245 241 279 110 124 142 149 137 142 123 113 94 81 67 54 45 33 31 28 28 16 18 17 21 344 351 3 335 318
270 272 276 228 213 214 226 230 201 250 268 243 237 247 248 237 244 237 238 245 220 216 207 215 240 275 352 344 141 147 155 157 154 156 154 146 110 95 69 57 36 27 31 36 27 0 356 353 347 5 338 359 341 276
266 268 257 247 202 212 255 231 216 243 256 246 236 232 244 232 232 229 222 228 232 205 219 233 251 266 123 126 134 146 158 165 196 204 170 146 121 105 91 63 45 39 30 20 15 9 12 5 350 333 327 319 309 308
245 247 255 218 201 211 228 230 241 240 242 240 250 225 240 231 228 229 221 220 228 226 225 231 241 214 170 168 166 170 162 164 170 169 158 142 141 145 133 96 51 41 18 3 358 2 351 337 341 345 346 337 326 311
228 240 250 201 191 217 242 215 222 216 231 246 232 235 228 224 227 212 230 225 226 219 221 224 231 226 187 171 165 165 163 166 169 160 150 149 147 149 147 146 3 323 315 313 317 327 332 327 326 333 333 335 336 327
207 216 229 221 193 208 200 211 211 219 218 228 232 237 239 215 214 221 239 234 218 215 200 195 212 199 180 171 174 177 178 182 170 158 158 163 166 170 184 233 273 288 293 294 310 311 307 309 316 319 320 323 322 321
176 203 221 228 200 197 206 203 213 218 224 218 228 235 204 187 222 244 241 237 237 196 190 190 205 216 197 176 186 190 183 186 172 167 169 169 171 187 215 236 277 306 304 291 290 318 319 316 313 311 310 308 309 310
190 213 211 216 196 199 202 205 199 202 215 224 225 142 154 185 229 249 249 30 15 198 198 203 203 217 205 183 182 171 167 169 176 167 163 174 172 180 201 221 247 154 181 298 311 306 308 309 310 307 305 306 303 302
195 205 209 231 252 207 215 221 207 200 207 211 164 155 155 201 233 138 108 43 43 192 156 213 205 216 203 164 154 156 157 153 160 170 162 161 161 165 165 172 203 248 275 289 301 306 300 299 298 297 299 300 300 299
199 202 215 213 220 219 214 193 190 204 216 148 142 170 178 216 75 72 65 34 85 102 130 143 150 159 136 135 138 139 149 169 177 190 175 152 164 179 197 217 250 286 311 318 295 291 304 310 308 302 299 298 298 299
209 208 217 194 212 199 213 204 207 206 195 171 186 191 165 86 89 111 100 104 122 127 119 117 114 128 128 133 135 146 159 151 162 169 177 176 181 190 183 233 290 295 293 296 311 312 311 309 307 303 304 306 304 300
203 196 197 175 185 196 173 224 229 186 150 146 119 112 104 112 100 107 120 129 136 140 140 142 144 147 144 144 144 156 169 180 181 188 197 198 179 208 245 277 283 290 301 308 316 319 318 312 319 323 312 308 310 304
27 151 182 139 130 85 89 95 100 105 99 93 81 116 134 133 133 129 130 137 151 151 153 154 157 160 158 169 175 176 180 206 200 193 202 213 231 240 253 273 293 296 318 324 332 328 324 334 332 327 329 330 325 324
22 16 124 117 102 115 121 143 112 98 127 139 119 98 135 168 138 144 160 130 149 167 171 166 164 148 166 185 199 190 189 205 188 191 197 188 202 237 245 293 336 334 340 1 341 341 342 346 346 351 351 352 352 352
64 58 75 93 131 124 100 132 116 110 105 80 75 21 53 18 71 109 143 156 125 160 162 163 166 178 192 182 183 179 195 205 203 186 186 185 191 183 137 122 55 30 32 24 4 354 4 11 13 15 15 17 20 23